N52LM KLAS-KFNL

Flight info

Callsign N52LM
Flight time N/A
Altitude 41000
Route NIITZ4 NIITZ HBU POWDR1
Aircraft HDJT/L-SABDGRWY/H

Departure

Time N/A
Airport Harry Reid International Airport (KLAS)

Arrival

Time 2026-05-03 21:38
Airport Northern Colorado Regional Airport (KFNL)
Time Latitude Longitude Altitude Speed Heading
2026-05-03 20:15 35.89615 -114.54409 26549 ft 376 kts 92°
2026-05-03 20:15 35.89716 -114.51164 26993 ft 380 kts 96°
2026-05-03 20:15 35.89693 -114.47872 27464 ft 385 kts 97°
2026-05-03 20:15 35.89659 -114.44551 27902 ft 391 kts 97°
2026-05-03 20:16 35.89645 -114.41174 28318 ft 397 kts 96°
2026-05-03 20:16 35.89637 -114.37743 28749 ft 402 kts 96°
2026-05-03 20:16 35.89618 -114.34328 29246 ft 405 kts 97°
2026-05-03 20:16 35.89592 -114.30836 29667 ft 411 kts 97°
2026-05-03 20:17 35.89569 -114.27274 30005 ft 416 kts 97°
2026-05-03 20:17 35.89549 -114.23678 30367 ft 419 kts 96°
2026-05-03 20:17 35.89526 -114.20078 30779 ft 421 kts 96°
2026-05-03 20:17 35.89499 -114.16460 31170 ft 422 kts 96°
2026-05-03 20:18 35.89471 -114.12831 31591 ft 424 kts 96°
2026-05-03 20:18 35.89443 -114.09183 31993 ft 426 kts 96°
2026-05-03 20:18 35.89415 -114.05575 32390 ft 427 kts 95°
2026-05-03 20:18 35.89385 -114.01905 32813 ft 427 kts 95°
2026-05-03 20:19 35.89353 -113.98234 33233 ft 429 kts 95°
2026-05-03 20:19 35.89320 -113.94542 33569 ft 431 kts 95°
2026-05-03 20:19 35.89285 -113.90839 33932 ft 433 kts 95°
2026-05-03 20:19 35.89251 -113.87127 34303 ft 433 kts 95°
2026-05-03 20:20 35.89215 -113.83420 34687 ft 432 kts 95°
2026-05-03 20:20 35.89177 -113.79719 35068 ft 431 kts 95°
2026-05-03 20:20 35.89151 -113.77271 35294 ft 431 kts 95°
2026-05-03 20:20 35.89098 -113.72325 35692 ft 430 kts 96°
2026-05-03 20:21 35.89072 -113.69885 35836 ft 430 kts 95°
2026-05-03 20:21 35.89032 -113.66195 36216 ft 431 kts 95°
2026-05-03 20:21 35.88987 -113.62496 36578 ft 430 kts 95°
2026-05-03 20:21 35.88944 -113.58811 36912 ft 429 kts 95°
2026-05-03 20:22 35.88901 -113.55131 37305 ft 428 kts 93°
2026-05-03 20:22 35.89135 -113.51468 37672 ft 430 kts 81°
2026-05-03 20:22 35.89704 -113.47849 38016 ft 430 kts 78°
2026-05-03 20:22 35.90312 -113.44241 38362 ft 429 kts 78°
2026-05-03 20:23 35.90872 -113.40624 38638 ft 429 kts 80°
2026-05-03 20:23 35.91937 -113.33359 39040 ft 426 kts 78°
2026-05-03 20:23 35.92502 -113.29834 39382 ft 424 kts 78°
2026-05-03 20:24 35.93121 -113.26041 39650 ft 424 kts 79°
2026-05-03 20:24 35.93623 -113.22698 39912 ft 423 kts 80°
2026-05-03 20:24 35.94144 -113.19124 40168 ft 422 kts 80°
2026-05-03 20:24 35.94686 -113.15568 40448 ft 421 kts 79°
2026-05-03 20:25 35.95239 -113.12022 40721 ft 419 kts 79°
2026-05-03 20:25 35.95777 -113.08481 40869 ft 423 kts 79°
2026-05-03 20:25 35.96316 -113.04879 40868 ft 429 kts 79°
2026-05-03 20:26 35.97428 -112.97525 40870 ft 442 kts 79°
2026-05-03 20:26 35.98554 -112.90026 40874 ft 453 kts 79°
2026-05-03 20:27 35.99712 -112.82292 40878 ft 462 kts 79°
2026-05-03 20:27 36.00887 -112.74409 40885 ft 469 kts 79°
2026-05-03 20:28 36.02072 -112.66414 40886 ft 476 kts 79°
2026-05-03 20:28 36.03264 -112.58335 40881 ft 478 kts 80°
2026-05-03 20:29 36.04462 -112.50268 40887 ft 478 kts 80°
2026-05-03 20:29 36.05626 -112.42122 40993 ft 483 kts 79°
2026-05-03 20:30 36.06830 -112.33969 41037 ft 487 kts 79°
2026-05-03 20:30 36.08015 -112.25701 41076 ft 491 kts 79°
2026-05-03 20:31 36.09236 -112.17287 41090 ft 496 kts 79°
2026-05-03 20:31 36.10428 -112.08929 41079 ft 496 kts 80°
2026-05-03 20:32 36.11629 -112.00502 41047 ft 497 kts 79°
2026-05-03 20:32 36.12825 -111.92059 41002 ft 499 kts 80°
2026-05-03 20:33 36.14019 -111.83588 40948 ft 498 kts 79°
2026-05-03 20:33 36.15197 -111.75205 40899 ft 498 kts 80°
2026-05-03 20:34 36.16369 -111.66764 40913 ft 495 kts 80°
2026-05-03 20:34 36.17593 -111.58380 40914 ft 495 kts 75°
2026-05-03 20:34 36.18651 -111.54333 40919 ft 492 kts 64°
2026-05-03 20:35 36.20188 -111.50574 40939 ft 486 kts 53°
2026-05-03 20:35 36.24012 -111.43696 40908 ft 484 kts 50°
2026-05-03 20:36 36.27679 -111.36727 40912 ft 486 kts 52°
2026-05-03 20:36 36.31438 -111.29761 40914 ft 485 kts 50°
2026-05-03 20:37 36.35168 -111.22758 40915 ft 486 kts 52°
2026-05-03 20:37 36.38891 -111.15775 40913 ft 484 kts 51°
2026-05-03 20:38 36.42610 -111.08791 40919 ft 485 kts 51°
2026-05-03 20:38 36.46321 -111.01794 40917 ft 485 kts 51°
2026-05-03 20:39 36.50034 -110.94792 40913 ft 485 kts 51°
2026-05-03 20:39 36.53734 -110.87788 40914 ft 485 kts 51°
2026-05-03 20:40 36.57417 -110.80812 40920 ft 484 kts 51°
2026-05-03 20:40 36.61109 -110.73796 40929 ft 484 kts 51°
2026-05-03 20:41 36.64793 -110.66787 40930 ft 483 kts 51°
2026-05-03 20:41 36.68470 -110.59774 40933 ft 483 kts 51°
2026-05-03 20:42 36.72142 -110.52755 40936 ft 482 kts 51°
2026-05-03 20:42 36.75792 -110.45786 40933 ft 480 kts 51°
2026-05-03 20:43 36.79420 -110.38791 40927 ft 478 kts 51°
2026-05-03 20:43 36.83048 -110.31830 40921 ft 479 kts 51°
2026-05-03 20:44 36.86675 -110.24838 40919 ft 480 kts 51°
2026-05-03 20:44 36.90300 -110.17835 40912 ft 480 kts 51°
2026-05-03 20:45 36.93924 -110.10827 40907 ft 480 kts 51°
2026-05-03 20:45 36.97514 -110.03862 40906 ft 479 kts 51°
2026-05-03 20:46 37.01121 -109.96856 40908 ft 478 kts 51°
2026-05-03 20:46 37.04718 -109.89850 40918 ft 478 kts 52°
2026-05-03 20:47 37.08314 -109.82835 40917 ft 478 kts 52°
2026-05-03 20:47 37.11896 -109.75830 40922 ft 477 kts 51°
2026-05-03 20:48 37.15475 -109.68819 40925 ft 477 kts 52°
2026-05-03 20:48 37.19045 -109.61807 40937 ft 477 kts 52°
2026-05-03 20:49 37.22588 -109.54836 40937 ft 477 kts 52°
2026-05-03 20:49 37.26148 -109.47817 40943 ft 477 kts 52°
2026-05-03 20:50 37.29706 -109.40786 40981 ft 476 kts 52°
2026-05-03 20:50 37.33254 -109.33758 41001 ft 475 kts 52°
2026-05-03 20:51 37.36788 -109.26747 41005 ft 474 kts 52°
2026-05-03 20:51 37.40295 -109.19773 41000 ft 474 kts 52°
2026-05-03 20:52 37.43817 -109.12755 40990 ft 474 kts 52°
2026-05-03 20:52 37.47330 -109.05739 40986 ft 473 kts 52°
2026-05-03 20:53 37.50839 -108.98717 40984 ft 474 kts 52°
2026-05-03 20:53 37.54347 -108.91682 41000 ft 474 kts 52°
2026-05-03 20:54 37.57845 -108.84651 40999 ft 473 kts 52°
2026-05-03 20:54 37.63089 -108.74083 41019 ft 473 kts 53°
2026-05-03 20:55 37.66577 -108.67035 41011 ft 472 kts 52°
2026-05-03 20:55 37.70046 -108.60011 41021 ft 471 kts 53°
2026-05-03 20:56 37.73510 -108.52982 41032 ft 471 kts 53°
2026-05-03 20:56 37.76970 -108.45947 41030 ft 471 kts 53°
2026-05-03 20:57 37.80426 -108.38902 41050 ft 471 kts 53°
2026-05-03 20:57 37.83857 -108.31897 41059 ft 471 kts 53°
2026-05-03 20:58 37.87303 -108.24844 41101 ft 471 kts 53°
2026-05-03 20:58 37.90742 -108.17790 41146 ft 470 kts 53°
2026-05-03 20:59 37.94174 -108.10739 41217 ft 470 kts 53°
2026-05-03 20:59 37.97578 -108.03720 41050 ft 469 kts 52°
2026-05-03 21:00 37.99866 -107.98998 41047 ft 469 kts 53°
2026-05-03 21:00 38.04411 -107.89604 41041 ft 469 kts 53°
2026-05-03 21:01 38.07814 -107.82541 41040 ft 469 kts 53°
2026-05-03 21:01 38.11205 -107.75501 41048 ft 467 kts 53°
2026-05-03 21:02 38.14587 -107.68455 41041 ft 467 kts 54°
2026-05-03 21:02 38.17968 -107.61401 41045 ft 467 kts 53°
2026-05-03 21:03 38.21348 -107.54332 41049 ft 467 kts 53°
2026-05-03 21:03 38.24718 -107.47268 41045 ft 467 kts 53°
2026-05-03 21:04 38.27520 -107.41387 41037 ft 466 kts 54°
2026-05-03 21:04 38.31408 -107.33194 41042 ft 464 kts 54°
2026-05-03 21:05 38.34752 -107.26145 41062 ft 464 kts 54°
2026-05-03 21:05 38.37524 -107.20271 41078 ft 466 kts 54°
2026-05-03 21:06 38.40868 -107.13209 41096 ft 464 kts 54°
2026-05-03 21:06 38.44184 -107.06155 41120 ft 463 kts 54°
2026-05-03 21:07 38.47916 -106.99579 41162 ft 455 kts 45°
2026-05-03 21:07 38.51869 -106.93243 41163 ft 456 kts 46°
2026-05-03 21:08 38.55786 -106.86859 41011 ft 457 kts 45°
2026-05-03 21:08 38.59733 -106.80482 41013 ft 457 kts 46°
2026-05-03 21:09 38.63653 -106.74088 40984 ft 456 kts 46°
2026-05-03 21:09 38.67577 -106.67705 40989 ft 456 kts 46°
2026-05-03 21:10 38.69507 -106.64553 40862 ft 456 kts 46°
2026-05-03 21:10 38.71475 -106.61337 40233 ft 458 kts 46°
2026-05-03 21:10 38.73432 -106.58137 39627 ft 455 kts 46°
2026-05-03 21:10 38.75386 -106.54941 39041 ft 456 kts 46°
2026-05-03 21:11 38.77340 -106.51739 38414 ft 455 kts 46°
2026-05-03 21:11 38.79287 -106.48545 37800 ft 456 kts 46°
2026-05-03 21:11 38.81239 -106.45342 37219 ft 455 kts 46°
2026-05-03 21:11 38.83186 -106.42142 36637 ft 454 kts 47°
2026-05-03 21:12 38.85129 -106.38944 36066 ft 453 kts 47°
2026-05-03 21:12 38.87065 -106.35758 35493 ft 452 kts 47°
2026-05-03 21:12 38.88993 -106.32581 34880 ft 449 kts 48°
2026-05-03 21:12 38.90908 -106.29420 34294 ft 449 kts 48°
2026-05-03 21:13 38.92826 -106.26252 33674 ft 449 kts 48°
2026-05-03 21:13 38.94748 -106.23079 33075 ft 449 kts 48°
2026-05-03 21:13 38.96669 -106.19900 32467 ft 451 kts 49°
2026-05-03 21:13 38.98570 -106.16750 31873 ft 451 kts 49°
2026-05-03 21:14 39.00493 -106.13560 31265 ft 452 kts 49°
2026-05-03 21:14 39.02427 -106.10352 30649 ft 453 kts 49°
2026-05-03 21:14 39.04357 -106.07147 30020 ft 454 kts 49°
2026-05-03 21:14 39.06284 -106.03940 29360 ft 450 kts 49°
2026-05-03 21:15 39.08186 -106.00772 28791 ft 445 kts 49°
2026-05-03 21:15 39.10073 -105.97628 28228 ft 440 kts 49°
2026-05-03 21:15 39.11931 -105.94530 27632 ft 435 kts 50°
2026-05-03 21:15 39.13768 -105.91464 26999 ft 430 kts 50°
2026-05-03 21:16 39.15588 -105.88423 26431 ft 425 kts 50°
2026-05-03 21:16 39.17385 -105.85416 25873 ft 421 kts 50°
2026-05-03 21:16 39.19159 -105.82445 25321 ft 416 kts 50°
2026-05-03 21:16 39.20923 -105.79489 24773 ft 412 kts 50°
2026-05-03 21:17 39.22663 -105.76573 24249 ft 408 kts 50°
2026-05-03 21:17 39.23803 -105.74661 23894 ft 405 kts 50°
2026-05-03 21:17 39.26086 -105.70825 23138 ft 400 kts 51°
2026-05-03 21:17 39.27779 -105.67979 22607 ft 396 kts 51°
2026-05-03 21:18 39.29455 -105.65160 22082 ft 393 kts 51°
2026-05-03 21:18 39.31091 -105.62398 21567 ft 390 kts 51°
2026-05-03 21:18 39.32728 -105.59621 21051 ft 386 kts 51°
2026-05-03 21:18 39.34349 -105.56869 20555 ft 382 kts 51°
2026-05-03 21:19 39.35926 -105.54205 20072 ft 364 kts 51°
2026-05-03 21:19 39.37445 -105.51659 19594 ft 351 kts 51°
2026-05-03 21:19 39.38922 -105.49176 19120 ft 347 kts 50°
2026-05-03 21:19 39.40384 -105.46705 18947 ft 345 kts 51°
2026-05-03 21:20 39.41843 -105.44228 18944 ft 347 kts 51°
2026-05-03 21:20 39.43304 -105.41747 18919 ft 347 kts 51°
2026-05-03 21:20 39.44769 -105.39263 18505 ft 344 kts 51°
2026-05-03 21:20 39.46227 -105.36788 18144 ft 347 kts 51°
2026-05-03 21:21 39.47668 -105.34336 17725 ft 343 kts 51°
2026-05-03 21:21 39.49116 -105.31870 17334 ft 342 kts 51°
2026-05-03 21:21 39.50549 -105.29432 17108 ft 340 kts 51°
2026-05-03 21:21 39.51979 -105.26998 16880 ft 335 kts 51°
2026-05-03 21:22 39.53388 -105.24595 16647 ft 335 kts 51°
2026-05-03 21:22 39.54792 -105.22199 16417 ft 332 kts 51°
2026-05-03 21:22 39.56190 -105.19809 16169 ft 333 kts 51°
2026-05-03 21:22 39.57584 -105.17427 15951 ft 331 kts 50°
2026-05-03 21:23 39.58980 -105.15047 15726 ft 330 kts 51°
2026-05-03 21:23 39.60359 -105.12681 15507 ft 328 kts 50°
2026-05-03 21:23 39.61735 -105.10319 15285 ft 326 kts 51°
2026-05-03 21:23 39.63108 -105.07968 15067 ft 326 kts 51°
2026-05-03 21:24 39.64456 -105.05659 14847 ft 324 kts 51°
2026-05-03 21:24 39.65817 -105.03322 14626 ft 324 kts 50°
2026-05-03 21:24 39.67169 -105.00996 14405 ft 322 kts 50°
2026-05-03 21:24 39.68519 -104.98675 14235 ft 321 kts 51°
2026-05-03 21:25 39.69861 -104.96366 14011 ft 320 kts 50°
2026-05-03 21:25 39.71200 -104.94064 13776 ft 318 kts 51°
2026-05-03 21:25 39.72528 -104.91772 13546 ft 319 kts 51°
2026-05-03 21:25 39.73862 -104.89473 13321 ft 318 kts 51°
2026-05-03 21:26 39.75193 -104.87176 13108 ft 317 kts 50°
2026-05-03 21:26 39.76556 -104.84928 12892 ft 315 kts 44°
2026-05-03 21:26 39.78208 -104.83129 12678 ft 303 kts 30°
2026-05-03 21:26 39.80034 -104.81907 12466 ft 289 kts 17°
2026-05-03 21:27 39.81915 -104.81248 12280 ft 277 kts
2026-05-03 21:27 39.83804 -104.81101 12095 ft 267 kts 354°
2026-05-03 21:27 39.85615 -104.81424 11910 ft 259 kts 344°
2026-05-03 21:27 39.87366 -104.81917 11729 ft 255 kts 345°
2026-05-03 21:28 39.89094 -104.82373 11552 ft 251 kts 346°
2026-05-03 21:28 39.90798 -104.82829 11373 ft 248 kts 345°
2026-05-03 21:28 39.92476 -104.83289 11198 ft 245 kts 345°
2026-05-03 21:28 39.94143 -104.83745 11022 ft 244 kts 345°
2026-05-03 21:29 39.95797 -104.84194 10851 ft 242 kts 345°
2026-05-03 21:29 39.97455 -104.84646 10672 ft 244 kts 345°
2026-05-03 21:29 39.99125 -104.85100 10498 ft 246 kts 345°
2026-05-03 21:29 40.00782 -104.85552 10319 ft 247 kts 345°
2026-05-03 21:30 40.02465 -104.86010 10145 ft 248 kts 345°
2026-05-03 21:30 40.04158 -104.86472 9962 ft 248 kts 345°
2026-05-03 21:30 40.05852 -104.86935 9781 ft 249 kts 345°
2026-05-03 21:30 40.07556 -104.87401 9587 ft 251 kts 345°
2026-05-03 21:31 40.09273 -104.87869 9345 ft 252 kts 345°
2026-05-03 21:31 40.10994 -104.88340 9171 ft 254 kts 345°
2026-05-03 21:31 40.12725 -104.88813 9003 ft 255 kts 346°
2026-05-03 21:31 40.14464 -104.89289 8827 ft 255 kts 346°
2026-05-03 21:32 40.16206 -104.89766 8660 ft 256 kts 345°
2026-05-03 21:32 40.17946 -104.90244 8486 ft 254 kts 346°
2026-05-03 21:32 40.19666 -104.90709 8320 ft 251 kts 346°
2026-05-03 21:32 40.21358 -104.91180 8157 ft 246 kts 346°
2026-05-03 21:33 40.23022 -104.91640 7988 ft 243 kts 346°
2026-05-03 21:33 40.24669 -104.92086 7832 ft 241 kts 346°
2026-05-03 21:33 40.26305 -104.92522 7656 ft 237 kts 345°
2026-05-03 21:33 40.27850 -104.93192 7498 ft 231 kts 336°
2026-05-03 21:34 40.29351 -104.93938 7340 ft 227 kts 337°
2026-05-03 21:34 40.30832 -104.94624 7187 ft 225 kts 338°
2026-05-03 21:34 40.32303 -104.95280 7036 ft 221 kts 338°
2026-05-03 21:34 40.33737 -104.95930 6885 ft 214 kts 338°
2026-05-03 21:35 40.35089 -104.96559 6751 ft 206 kts 338°
2026-05-03 21:35 40.36408 -104.97178 6565 ft 194 kts 337°
2026-05-03 21:35 40.37642 -104.97752 6354 ft 182 kts 338°
2026-05-03 21:35 40.38809 -104.98286 6115 ft 173 kts 338°
2026-05-03 21:36 40.39922 -104.98776 5935 ft 161 kts 338°
2026-05-03 21:36 40.40904 -104.99236 5735 ft 141 kts 337°
2026-05-03 21:36 40.41807 -104.99663 5556 ft 138 kts 337°
2026-05-03 21:36 40.42689 -105.00101 5381 ft 131 kts 341°
2026-05-03 21:37 40.43513 -105.00489 5149 ft 120 kts 343°
2026-05-03 21:37 40.44262 -105.00829 5005 ft 105 kts 343°
2026-05-03 21:37 40.44874 -105.01111 5000 ft 82 kts 340°
2026-05-03 21:37 40.45355 -105.01338 4996 ft 67 kts 340°
2026-05-03 21:38 40.45633 -105.01465 4999 ft 22 kts 338°
2026-05-03 21:38 40.45728 -105.01416 4999 ft 16 kts 64°
2026-05-03 21:38 40.45686 -105.01336 4999 ft 13 kts 162°
2026-05-03 21:38 40.45580 -105.01288 4999 ft 18 kts 160°
2026-05-03 21:39 40.45448 -105.01227 4999 ft 22 kts 160°
2026-05-03 21:39 40.45292 -105.01155 4999 ft 25 kts 160°
2026-05-03 21:39 40.45133 -105.01080 4999 ft 24 kts 160°
2026-05-03 21:39 40.44985 -105.01011 4999 ft 19 kts 160°
2026-05-03 21:40 40.44944 -105.00922 4999 ft 13 kts 68°
2026-05-03 21:40 40.44915 -105.00850 4999 ft 10 kts 159°
2026-05-03 21:40 40.44894 -105.00801 4999 ft 0 kts 70°